User: anonymous   Login
Location: *
(2.5500°S, 65.9667°W)
Time: 23:10:00
(UTC+00:00)
Language:

Delta 142 - Orbit

View from above orbital plane
View from above orbital plane
View from above satellite
View from above satellite

Ground track
Ground track

The orbit data is extracted from the following two-line orbital elements,

1 10954U 78062B   22017.52595123  .00000433  00000-0  96012-4 0  9998
2 10954  28.4314  64.4874 0697704 204.9670 151.5527 13.51068893143094
Epoch (UTC): 17 January 2022 12:37:22
Eccentricity: 0.0697704
inclination: 28.4314°
perigee height: 549 km
apogee height: 1588 km
right ascension of ascending node: 64.4874°
argument of perigee: 204.9670°
revolutions per day: 13.51068893
mean anomaly at epoch: 151.5527°
orbit number at epoch: 14309

The dashed part of the orbit path shows where the satellite is in the earth's shadow,  

DLR